Location: Newark
(49.1022°N, 20.8503°E)
Time: 07:49:03
(UTC+00:00)

Envisat - Pass Details

Date: 03 October 2020
Orbit: 764 x 766 km, 98.1° (Epoch: 21 October)

Event Time Altitude Azimuth Distance (km) Brightness Sun altitude
Rises 03:30:13 0° 26° (NNE) 3,243 6.8 -12.2°
Reaches altitude 10° 03:33:13 10° 44° (NE) 2,311 6.3 -11.7°
Maximum altitude 03:36:47 19° 89° (E) 1,762 6.1 -11.1°
Drops below altitude 10° 03:40:21 10° 134° (SE) 2,298 6.1 -10.5°
Sets 03:43:18 0° 152° (SSE) 3,218 6.5 -10.0°
